Погода в Осеке

Чехия     50°37′27″N   13°41′27″E
темп.,
°C
ветер,
м/с
пор.,
м/с
влажн.,
%
обл.,
%
осадки,
мм/ч
давл.,
гПа
погр.,
м
22 января, сб
сб2201:00+1з61495100 0.4 1023881
04:00+3сз71596100 2.2 1022951
07:00+2ссз6148680 3.1 1024944
10:00+2ссз4107945 0.1 1027986
13:00+2ссз596955 0.2 10291009
16:00+1сз227998 0.0 102952
19:000зсз118987 0.0 103113
22:00+1юз1193100 0.0 103131
23 января, вс
вс2301:00+1зюз1299100 0.5 1030162
04:00+2зсз2699100 0.2 1031365
07:00+2з119261 0.2 103230
10:00+3зсз259399 0.0 1033298
13:00+4сз358596 0.0 1033408
16:00+3зсз2291100 0.0 103392
19:00+3зсз1194100 0.0 103444
22:00+3зсз1196100 0.0 103430
24 января, пн
пн2401:00+3ссз1197100 0.0 103519
04:00+3с1197100 0.0 103518
07:00+3ссв1197100 0.0 103518
10:00+3вюв0196100 0.0 103694
13:00+4юв1193100 0.0 1035255
16:00+4вюв1194100 0.0 1035123
19:00+3вюв0195100 0.0 103525
22:00+3сз009499 0.0 103514
25 января, вт
вт2501:00+3ююз1193100 0.0 103412
04:00+3зюз118893 0.0 103410
07:00+3зсз1182100 0.0 103412
10:00+4зсз248286 0.0 1034228
13:00+5зсз477331 0.0 1033774
16:00+4зсз2580100 0.0 1033458
19:00+3зсз2797100 0.1 1034611
22:00+2зсз2387100 0.1 103481
26 января, ср
ср2601:00+3сз3577100 0.1 1034247
04:00+1зсз238725 0.0 103496
07:000з228632 0.0 103427
10:00+2зюз127692 0.0 1034238
13:00+4з356398 0.0 1032924
16:00+3з357499 0.0 1031160
19:00+2зюз368793 0.0 1031149
22:00+2зюз3686100 0.0 1030204